UPSVAC Airport Information Service

Orlando International Airport

ICAO: KMCO Country: United States
Latitude: 28.4294 Longitude: -81.3089
Latest Arrival : UPS1284 (KSDF-KMCO) Latest Departure : UPS1285 (KMCO-KSDF)


WX CaptureLIVE
Data provided by noaa.gov | Fetched at 22:53:27

METAR : KMCO 112153Z 36007KT 10SM FEW055 SCT100 BKN130 BKN250 28/19 A3004 RMK AO2 LTG DSNT NE AND E SLP170 T02830194

TAF : KMCO 112059Z 1121/1224 33008KT P6SM SCT060 BKN150 FM120000 VRB04KT P6SM FEW080 BKN250 FM121400 24008KT P6SM SCT040 BKN200 FM121830 25010KT P6SM VCTS SCT050CB BKN080


Runway Data for KMCO
Data provided by openaviationdata.com

Runway ID Mag Var Hdg Length Elevation Surface ILS Freq ILS Id ILS Slope
17L -5 184° 9025 ft 96 ft Concrete 110.95 IARK 3
17R -5 184° 10027 ft 96 ft Concrete 111.75 IDIZ 3
18L -5 184° 12037 ft 96 ft Asphalt -- -- --
18R -5 184° 12037 ft 96 ft Concrete 111.9 ITFE 3
35L -5 10027 ft 96 ft Concrete 110.5 IDDO 3
35R -5 9025 ft 96 ft Concrete 111.15 ICER 3
36L -5 12037 ft 96 ft Concrete -- -- --
36R -5 12037 ft 96 ft Asphalt 110.7 IOJP 3

Orlando International Airport, United States
Use only for reference purposes



Not for navigational purposes.